Retour au catalogue

IRIDIUM 33 DEB

ActifPO
NORAD 34985·DEBRIS·🇺🇸 United States

Lancé Sep 14, 1997 depuis Baikonur Cosmodrome

Loading…

Prochains Passages (prochaines 24 heures)

TLE

FraisSource: Space-Track

Époque: Sep 14, 2026, 09:18 UTC

1 34985U 97051NR  26257.38806697  .00000919  00000-0  26797-3 0  9993
2 34985  86.3673 299.2111 0022219  39.6243 333.4565 14.43008164911496

Suivez IRIDIUM 33 DEB en temps réel avec AllMySat

Download on the App Store